This is the latest recevied weather packets stored in our database for station/object KD4WLE. If no packets are shown the sender has not sent any weather packets the latest 10 day(s).
| Time | Temp. | Humidity | Pressure | Rain* | Wind** | Luminosity | Snow |
|---|---|---|---|---|---|---|---|
| 1777297609 | 25.56° C | 87% | 1017 hPa | 0 mm | - | 446 W/m² | - |
| 1777297305 | 25.56° C | 85% | 1017 hPa | 0 mm | - | 451 W/m² | - |
| 1777297003 | 25.56° C | 85% | 1016.8 hPa | 0 mm | - | 355 W/m² | - |
| 1777296698 | 25.56° C | 85% | 1016.8 hPa | 0 mm | - | 396 W/m² | - |
| 1777296385 | 25.56° C | 84% | 1016.6 hPa | 0 mm | - | 241 W/m² | - |
| 1777296081 | 25° C | 86% | 1016.5 hPa | 0 mm | - | 324 W/m² | - |
| 1777295777 | 25° C | 89% | 1016.6 hPa | 0 mm | - | 372 W/m² | - |
| 1777295475 | 25° C | 88% | 1016.6 hPa | 0 mm | - | 197 W/m² | - |
| 1777295172 | 25.56° C | 85% | 1016.7 hPa | 0 mm | - | 334 W/m² | - |
| 1777294870 | 25° C | 86% | 1016.4 hPa | 0 mm | - | 300 W/m² | - |
| 1777294569 | 25.56° C | 86% | 1016.4 hPa | 0 mm | - | 263 W/m² | - |
| 1777294267 | 25.56° C | 87% | 1016.1 hPa | 0 mm | - | 249 W/m² | - |
| 1777293963 | 25° C | 87% | 1016.1 hPa | 0 mm | - | 231 W/m² | - |
| 1777293659 | 25° C | 88% | 1016.1 hPa | 0 mm | - | 214 W/m² | - |
| 1777293354 | 24.44° C | 89% | 1016.2 hPa | 0 mm | - | 180 W/m² | - |
| 1777293050 | 23.89° C | 90% | 1016.2 hPa | 0 mm | - | 112 W/m² | - |
| 1777292750 | 24.44° C | 93% | 1015.9 hPa | 0 mm | - | 122 W/m² | - |
| 1777292446 | 24.44° C | 92% | 1015.9 hPa | 0 mm | - | 102 W/m² | - |
| 1777292143 | 23.89° C | 92% | 1015.7 hPa | 0 mm | - | 87 W/m² | - |
| 1777291839 | 23.33° C | 95% | 1016 hPa | 0 mm | - | 66 W/m² | - |
| 1777291535 | 22.22° C | 98% | 1015.8 hPa | 0 mm | - | 62 W/m² | - |
| 1777291233 | 22.22° C | 99% | 1015.7 hPa | 0 mm | - | 46 W/m² | - |
| 1777290929 | 21.67° C | 99% | 1015.6 hPa | 0 mm | - | 43 W/m² | - |
| 1777290627 | 22.22° C | 99% | 1015.5 hPa | 0 mm | - | 42 W/m² | - |
| 1777290323 | 22.22° C | 99% | 1015.4 hPa | 0 mm | - | 40 W/m² | - |
* Rain latest hour (hover to see other rain measurements)
** Current wind speed in m/s (hover to see current wind gust speed)